Location: Newark
(43.6583°N, 1.6617°E)
Time: 10:16:40
(UTC+00:00)

Explorer 7 - All Passes

Search period start: 26 August 2019 00:00
Search period end: 05 September 2019 00:00
Orbit: 485 x 680 km, 50.3° (Epoch: 25 August)

Date Brightness Start Highest point End Pass type
(mag) Time Alt. Az. Time Alt. Az. Time Alt. Az.
26 Aug - 06:27:34 10° S 06:30:38 17° SE 06:33:40 10° E daylight
26 Aug - 08:05:50 10° SW 08:10:42 73° SSE 08:15:25 10° ENE daylight
26 Aug - 09:46:59 10° W 09:51:36 43° NNW 09:56:00 10° ENE daylight
26 Aug - 11:28:34 10° WNW 11:32:56 37° N 11:37:02 10° ENE daylight
26 Aug - 13:09:27 10° WNW 13:13:59 77° NNE 13:18:13 10° ESE daylight
26 Aug - 14:50:42 10° W 14:54:10 23° SW 14:57:27 10° S daylight
27 Aug - 06:31:26 10° S 06:35:27 26° SE 06:39:25 10° E daylight
27 Aug - 08:10:51 10° WSW 08:15:45 82° NNW 08:20:30 10° ENE daylight
27 Aug - 09:52:19 10° WNW 09:56:49 38° N 10:01:08 10° ENE daylight
27 Aug - 11:33:44 10° WNW 11:38:10 41° NNE 11:42:21 10° E daylight
27 Aug - 13:14:31 10° WNW 13:19:03 76° SSW 13:23:16 10° SE daylight
27 Aug - 14:56:33 10° W 14:58:56 15° SW 15:01:14 10° SSW daylight
28 Aug - 06:35:47 10° SSW 06:40:19 38° SE 06:44:48 10° ENE daylight
28 Aug - 08:16:01 10° WSW 08:20:52 62° NNW 08:25:33 10° ENE daylight
28 Aug - 09:57:38 10° WNW 10:02:05 36° N 10:06:20 10° ENE daylight
28 Aug - 11:38:50 10° WNW 11:43:23 49° NNE 11:47:39 10° E daylight
28 Aug - 13:19:39 10° WNW 13:24:02 50° SW 13:28:07 10° SE daylight
29 Aug - 05:03:29 10° SSE 05:05:22 12° SE 05:07:16 10° ESE daylight
29 Aug - 06:40:27 10° SW 06:45:16 57° SE 06:50:00 10° ENE daylight
29 Aug - 08:21:17 10° W 08:26:02 49° NNW 08:30:38 10° ENE daylight
29 Aug - 10:02:54 10° WNW 10:07:21 36° N 10:11:35 10° ENE daylight
29 Aug - 11:43:54 10° WNW 11:48:32 63° NNE 11:52:53 10° ESE daylight
29 Aug - 13:24:54 10° WNW 13:28:56 32° SW 13:32:43 10° SSE daylight
30 Aug - 05:06:39 10° S 05:10:07 19° SE 05:13:36 10° E daylight
30 Aug - 06:45:20 10° SW 06:50:16 82° SSE 06:55:06 10° ENE daylight
30 Aug - 08:26:35 10° W 08:31:14 42° NNW 08:35:44 10° ENE daylight
30 Aug - 10:08:06 10° WNW 10:12:36 39° N 10:16:52 10° ENE daylight
30 Aug - 11:48:58 10° WNW 11:53:39 85° NNE 11:58:01 10° ESE daylight
30 Aug - 13:30:23 10° W 13:33:45 21° SW 13:36:57 10° S daylight
31 Aug - 05:10:43 10° SSW 05:14:57 29° SE 05:19:10 10° ENE daylight
31 Aug - 06:50:25 10° WSW 06:55:20 75° NNW 07:00:10 10° ENE daylight
31 Aug - 08:31:55 10° WNW 08:36:29 38° N 08:40:53 10° ENE daylight
31 Aug - 10:13:15 10° WNW 10:17:50 44° NNE 10:22:11 10° E daylight
31 Aug - 11:54:03 10° WNW 11:58:40 67° SW 12:03:00 10° SE daylight
31 Aug - 13:36:28 10° W 13:38:29 13° SW 13:40:28 10° SSW daylight
01 Sep - 05:15:11 10° SSW 05:19:50 44° SE 05:24:29 10° ENE daylight
01 Sep - 06:55:36 10° W 07:00:28 57° NNW 07:05:14 10° ENE daylight
01 Sep - 08:37:13 10° WNW 08:41:45 37° N 08:46:06 10° ENE daylight
01 Sep - 10:18:20 10° WNW 10:23:02 54° NNE 10:27:28 10° E daylight
01 Sep - 11:59:12 10° WNW 12:03:38 44° SW 12:07:47 10° SSE daylight
02 Sep - 03:42:16 10° SSE 03:44:51 14° SE 03:47:26 10° E visible
02 Sep - 05:19:56 10° SW 05:24:47 65° SE 05:29:38 10° ENE daylight
02 Sep - 07:00:53 10° W 07:05:38 47° NNW 07:10:18 10° ENE daylight
02 Sep - 08:42:28 10° WNW 08:47:00 37° N 08:51:22 10° ENE daylight
02 Sep - 10:23:24 10° WNW 10:28:11 70° NNE 10:32:40 10° ESE daylight
02 Sep - 12:04:30 10° WNW 12:08:30 29° SW 12:12:17 10° SSE daylight
03 Sep - 03:45:51 10° S 03:49:36 22° SE 03:53:24 10° E visible
03 Sep - 05:24:53 10° WSW 05:29:49 90° SSE 05:34:44 10° ENE daylight
03 Sep - 07:06:12 10° W 07:10:52 41° N 07:15:25 10° ENE daylight
03 Sep - 08:47:39 10° WNW 08:52:16 41° N 08:56:41 10° E daylight
03 Sep - 10:28:28 10° WNW 10:33:15 86° SSW 10:37:46 10° ESE daylight
03 Sep - 12:10:05 10° W 12:13:18 19° SW 12:16:22 10° S daylight
04 Sep - 03:50:04 10° SSW 03:54:27 34° SE 03:58:52 10° ENE visible
04 Sep - 05:30:00 10° WSW 05:34:54 68° NNW 05:39:47 10° ENE daylight
04 Sep - 07:11:31 10° WNW 07:16:07 38° N 07:20:36 10° ENE daylight
04 Sep - 08:52:46 10° WNW 08:57:29 47° NNE 09:01:59 10° E daylight
04 Sep - 10:33:34 10° WNW 10:38:16 60° SW 10:42:41 10° SE daylight
04 Sep - 12:16:31 10° WSW 12:18:01 11° SW 12:19:29 10° SSW daylight
